This demonstration page uses our WeatherBlox Daily Observations layout. Learn more.

Left ArrowRight Arrow

Hourly Observations for May 1, 2022

Temp ( °F °C ) Dew Point ( °F °C ) Humidity (%) Winds ( mph kmh ) Pressure ( in mb ) Visibility ( mi km ) Precip ( " mm )
12:52 am 00:52 Clear 51 10.6 46 7.8 83 83 SW 5 7 29.91 1013 10 16 0.00 0.00
1:52 am 01:52 Clear 52 11.1 46 7.8 80 80 W 3 6 29.91 1013 10 16 0.00 0.00
2:52 am 02:52 Clear 53 11.7 45 7.2 74 74 WNW 5 7 29.91 1013 10 16 0.00 0.00
3:52 am 03:52 Clear 52 11.1 43 6.1 72 72 WNW 8 13 29.92 1013 10 16 0.00 0.00
4:52 am 04:52 Clear 51 10.6 42 5.6 71 71 WNW 6 9 29.94 1014 10 16 0.00 0.00
5:52 am 05:52 Clear 51 10.6 40 4.4 66 66 WNW 6 9 29.96 1015 10 16 0.00 0.00
6:52 am 06:52 Sunny 50 10 40 4.4 68 68 WNW 7 11 29.99 1016 10 16 0.00 0.00
7:52 am 07:52 Sunny 53 11.7 41 5 64 64 W 8 13 30.01 1016 10 16 0.00 0.00
8:52 am 08:52 Sunny 55 12.8 39 3.9 55 55 NW 16 26 30.02 1017 10 16 0.00 0.00
9:52 am 09:52 Sunny 58 14.4 38 3.3 48 48 WNW 10 17 30.05 1018 10 16 0.00 0.00
10:52 am 10:52 Sunny 61 16.1 39 3.9 44 44 NW 12 19 30.06 1018 10 16 0.00 0.00
11:52 am 11:52 Sunny 63 17.2 37 2.8 38 38 W 13 20 30.05 1018 10 16 0.00 0.00
12:52 pm 12:52 Sunny 65 18.3 39 3.9 39 39 W 10 17 30.04 1017 10 16 0.00 0.00
1:52 pm 13:52 Sunny 67 19.4 42 5.6 41 41 W 14 22 30.03 1017 10 16 0.00 0.00
2:52 pm 14:52 Sunny 68 20 41 5 38 38 WNW 14 22 30.03 1017 10 16 0.00 0.00
3:52 pm 15:52 Sunny 69 20.6 38 3.3 32 32 W 13 20 30.01 1016 10 16 0.00 0.00
4:52 pm 16:52 Sunny 69 20.6 41 5 36 36 W 13 20 30.01 1016 10 16 0.00 0.00
5:52 pm 17:52 Sunny 69 20.6 40 4.4 35 35 WNW 3 6 30.00 1016 10 16 0.00 0.00
6:52 pm 18:52 Sunny 66 18.9 45 7.2 47 47 NW 6 9 30.00 1016 10 16 0.00 0.00
7:52 pm 19:52 Sunny 64 17.8 43 6.1 46 46 Calm 29.99 1016 10 16 0.00 0.00
8:52 pm 20:52 Clear 55 12.8 46 7.8 72 72 E 3 6 29.99 1016 10 16 0.00 0.00
9:52 pm 21:52 Clear 54 12.2 45 7.2 72 72 Calm 30.00 1016 10 16 0.00 0.00
10:52 pm 22:52 Clear 53 11.7 44 6.7 72 72 Calm 30.00 1016 10 16 0.00 0.00
11:52 pm 23:52 Clear 52 11.1 44 6.7 75 75 Calm 30.00 1016 10 16 0.00 0.00

Powered by AerisWeather